Location: City of Moscow
(46.7306°N, 116.9989°W)
Time: 01:25:33
(UTC+00:00)

Cosmos 1553 Rocket - Pass Details

Date: 11 December 2025
Orbit: 942 x 1006 km, 82.9° (Epoch: 14 January)

Event Time Altitude Azimuth Distance (km) Brightness Sun altitude
Rises 13:12:29 0° 353° (N) 3,729 6.9 -21.4°
Reaches altitude 10° 13:15:03 10° 356° (N) 2,782 6.2 -20.9°
Maximum altitude 13:21:26 67° 79° (E) 1,087 4.4 -19.9°
Drops below altitude 10° 13:27:47 10° 162° (SSE) 2,774 6.8 -18.8°
Sets 13:30:20 0° 165° (SSE) 3,718 7.5 -18.4°
